TimePDT,TemperatureF,Dew PointF,Humidity,Sea Level PressureIn,VisibilityMPH,Wind Direction,Wind SpeedMPH,Gust SpeedMPH,PrecipitationIn,Events,Conditions,WindDirDegrees,DateUTC
12:53 AM,53.1,46.0,77,29.78,10.0,Calm,Calm,-,N/A,,Clear,0,2013-10-10 07:53:00
1:53 AM,52.0,46.0,80,29.79,10.0,NNE,4.6,-,N/A,,Clear,20,2013-10-10 08:53:00
2:53 AM,52.0,45.0,77,29.80,-9999.0,Calm,Calm,-,N/A,,Clear,0,2013-10-10 09:53:00
3:53 AM,51.1,45.0,80,29.83,10.0,Calm,Calm,-,N/A,,Clear,0,2013-10-10 10:53:00
4:53 AM,50.0,44.1,80,29.85,10.0,North,4.6,-,N/A,,Clear,360,2013-10-10 11:53:00
5:53 AM,48.9,44.1,83,29.87,10.0,Calm,Calm,-,N/A,,Clear,0,2013-10-10 12:53:00
6:53 AM,50.0,43.0,77,29.88,10.0,Calm,Calm,-,N/A,,Clear,0,2013-10-10 13:53:00
7:53 AM,52.0,44.1,74,29.92,-9999.0,Calm,Calm,-,N/A,,Clear,0,2013-10-10 14:53:00
8:53 AM,57.0,44.1,62,29.95,10.0,Calm,Calm,-,N/A,,Clear,0,2013-10-10 15:53:00
9:53 AM,59.0,44.1,58,29.97,10.0,Calm,Calm,-,N/A,,Clear,0,2013-10-10 16:53:00
10:53 AM,62.1,41.0,46,29.97,10.0,Calm,Calm,-,N/A,,Clear,0,2013-10-10 17:53:00
11:53 AM,64.0,41.0,43,29.96,10.0,Variable,4.6,-,N/A,,Clear,0,2013-10-10 18:53:00
12:53 PM,68.0,39.0,35,29.94,10.0,Calm,Calm,-,N/A,,Clear,0,2013-10-10 19:53:00
1:53 PM,66.9,39.9,37,29.93,10.0,South,6.9,-,N/A,,Clear,180,2013-10-10 20:53:00
2:53 PM,68.0,43.0,40,29.94,10.0,Variable,5.8,-,N/A,,Partly Cloudy,0,2013-10-10 21:53:00
3:53 PM,66.9,43.0,42,29.95,10.0,South,8.1,-,N/A,,Scattered Clouds,170,2013-10-10 22:53:00
4:53 PM,66.0,45.0,47,29.95,10.0,SSE,6.9,-,N/A,,Mostly Cloudy,160,2013-10-10 23:53:00
5:53 PM,64.9,46.0,50,29.95,10.0,South,5.8,-,N/A,,Mostly Cloudy,190,2013-10-11 00:53:00
6:53 PM,63.0,45.0,52,29.95,10.0,South,4.6,-,N/A,,Clear,190,2013-10-11 01:53:00
7:53 PM,62.1,46.9,58,29.97,10.0,Calm,Calm,-,N/A,,Clear,0,2013-10-11 02:53:00
8:53 PM,61.0,48.0,62,29.98,10.0,Calm,Calm,-,N/A,,Clear,0,2013-10-11 03:53:00
9:53 PM,60.1,46.9,62,29.99,10.0,Calm,Calm,-,N/A,,Clear,0,2013-10-11 04:53:00
10:53 PM,57.9,46.9,67,29.99,10.0,NW,3.5,-,N/A,,Clear,310,2013-10-11 05:53:00
11:53 PM,57.0,46.9,69,29.99,10.0,NW,3.5,-,N/A,,Clear,320,2013-10-11 06:53:00